FW5819 Weather Reports


Display with metric or nautical units.
time (UTC)temp
F
wind
direction
speed
MPH
gust
MPH
rain 1hr
in
rain 24hr
in
rain mn
in
humidity
%
barometer
mb
20260509191535 69 247 7.0 16.0 0.00 0.09 0.00 62 1004.8
20260509190035 70 233 5.0 18.0 0.00 0.09 0.00 63 1004.8
20260509184543 69 213 6.0 15.0 0.00 0.09 0.00 64 1005.0
20260509183039 69 205 9.0 17.0 0.00 0.09 0.00 63 1005.2
20260509181540 69 159 4.0 16.0 0.00 0.09 0.00 64 1005.4
20260509180105 68 222 7.0 17.0 0.00 0.09 0.00 65 1005.4
20260509174533 68 245 7.0 17.0 0.00 0.09 0.00 66 1005.4
20260509173041 67 285 5.0 17.0 0.00 0.09 0.00 67 1005.4
20260509171536 67 271 4.0 17.0 0.00 0.09 0.00 67 1005.4
20260509170048 67 219 5.0 13.0 0.00 0.09 0.00 68 1005.6
20260509164537 66 311 3.0 12.0 0.00 0.09 0.00 70 1005.7
20260509163036 66 171 4.0 13.0 0.00 0.09 0.00 70 1005.7
20260509161534 65 266 5.0 14.0 0.00 0.09 0.00 68 1005.8
20260509160031 64 229 3.0 10.0 0.00 0.09 0.00 70 1005.6
20260509154535 64 270 2.0 9.0 0.00 0.09 0.00 72 1006.2
20260509153035 62 173 3.0 8.0 0.00 0.09 0.00 76 1006.3
20260509151538 62 282 5.0 12.0 0.00 0.09 0.00 74 1006.7
20260509150035 61 283 4.0 13.0 0.00 0.09 0.00 78 1006.7
20260509144533 61 264 3.0 10.0 0.00 0.09 0.00 79 1006.4
20260509143039 60 189 4.0 11.0 0.00 0.09 0.00 82 1006.4
20260509141543 59 309 2.0 6.0 0.00 0.09 0.00 84 1006.5
20260509140033 59 259 2.0 7.0 0.00 0.09 0.00 87 1006.2
20260509134533 58 237 1.0 6.0 0.00 0.09 0.00 90 1006.5
20260509133054 56 250 3.0 7.0 0.00 0.09 0.00 90 1007.0
20260509131534 56 263 2.0 7.0 0.00 0.09 0.00 91 1007.0
20260509130038 56 269 2.0 7.0 0.00 0.09 0.00 92 1006.8
20260509124535 55 55 0.0 7.0 0.00 0.09 0.00 93 1006.8
20260509123036 54 237 1.0 5.0 0.00 0.09 0.00 93 1006.9
20260509121532 54 250 1.0 4.0 0.00 0.09 0.00 94 1007.1
20260509120032 54 248 1.0 3.0 0.00 0.09 0.00 94 1007.2
20260509114536 53 225 3.0 6.0 0.00 0.09 0.00 94 1007.2
20260509113038 52 0 0.0 3.0 0.00 0.09 0.00 94 1007.2
20260509111535 52 0 0.0 2.0 0.00 0.09 0.00 94 1007.0
20260509110036 52 0 0.0 3.0 0.00 0.09 0.00 94 1006.9
20260509104539 51 221 0.0 1.0 0.00 0.09 0.00 93 1006.8
20260509103034 52 188 0.0 2.0 0.00 0.09 0.00 93 1006.7
20260509101537 51 231 0.0 4.0 0.00 0.09 0.00 93 1006.8
20260509100035 51 0 1.0 2.0 0.00 0.09 0.00 93 1006.8
20260509094537 51 157 0.0 1.0 0.00 0.09 0.00 93 1007.0
20260509093036 51 222 0.0 3.0 0.00 0.09 0.00 93 1007.1
20260509091603 51 0 0.0 1.0 0.00 0.09 0.00 93 1007.0
20260509090048 51 132 0.0 3.0 0.00 0.09 0.00 93 1007.1
20260509084537 52 0 0.0 1.0 0.00 0.09 0.00 93 1007.3
20260509083035 52 0 0.0 1.0 0.00 0.09 0.00 92 1007.4
20260509081547 52 162 0.0 2.0 0.00 0.09 0.00 92 1007.4
20260509080039 53 0 1.0 3.0 0.00 0.09 0.00 92 1007.5
20260509074536 53 0 0.0 3.0 0.00 0.09 0.00 92 1007.5
20260509073044 53 221 0.0 5.0 0.00 0.09 0.00 92 1007.5
20260509071545 53 228 1.0 4.0 0.00 0.09 0.00 93 1007.6
20260509070042 53 0 1.0 6.0 0.00 0.09 0.00 93 1007.5
20260509064533 53 227 1.0 4.0 0.00 0.09 0.00 93 1007.9
20260509063057 53 215 1.0 4.0 0.00 0.09 0.00 92 1008.0
20260509061601 52 0 0.0 4.0 0.00 0.09 0.00 92 1008.0
20260509060051 52 0 0.0 4.0 0.00 0.09 0.00 92 1008.3
20260509054535 52 0 1.0 4.0 0.00 0.09 0.00 92 1008.4
20260509053035 52 150 1.0 3.0 0.00 0.09 0.00 92 1008.4
20260509051534 52 224 1.0 6.0 0.00 0.09 0.00 92 1008.4
20260509050037 52 86 1.0 4.0 0.00 0.09 0.00 92 1008.6
20260509044535 52 0 0.0 5.0 0.00 0.09 0.00 91 1008.7
20260509043039 52 162 0.0 2.0 0.00 0.09 0.00 91 1008.7
20260509041532 52 144 0.0 3.0 0.01 0.09 0.00 91 1008.9
20260509040032 52 232 1.0 4.0 0.02 0.09 0.00 91 1009.1
20260509034536 52 215 0.0 5.0 0.02 0.09 0.09 91 1009.3
20260509033036 53 204 2.0 8.0 0.02 0.09 0.09 90 1009.4
20260509031538 53 219 1.0 8.0 0.01 0.08 0.08 90 1009.4
20260509030038 52 223 1.0 6.0 0.00 0.07 0.07 90 1009.4
20260509024537 52 203 2.0 9.0 0.00 0.07 0.07 91 1009.6
20260509023032 52 199 1.0 6.0 0.00 0.07 0.07 91 1009.7
20260509021532 52 198 0.0 5.0 0.00 0.07 0.07 91 1009.5
20260509020048 52 235 2.0 6.0 0.00 0.07 0.07 91 1009.5
20260509014544 52 213 1.0 5.0 0.00 0.07 0.07 91 1009.3
20260509013038 52 186 1.0 4.0 0.00 0.07 0.07 91 1009.3
20260509011534 52 171 0.0 5.0 0.00 0.07 0.07 91 1009.6
20260509010031 52 246 1.0 7.0 0.00 0.07 0.07 91 1009.4
20260509004531 52 160 0.0 6.0 0.00 0.07 0.07 90 1009.4
20260509003041 52 136 2.0 6.0 0.00 0.07 0.07 90 1009.5
20260509001535 52 244 1.0 4.0 0.01 0.07 0.07 90 1009.6
20260509000034 52 188 1.0 6.0 0.01 0.07 0.07 90 1009.6
20260508234533 52 193 1.0 4.0 0.02 0.07 0.07 89 1009.5
20260508233031 52 195 1.0 4.0 0.02 0.07 0.07 89 1009.6
20260508231537 52 219 0.0 2.0 0.03 0.06 0.06 88 1009.4
20260508230034 52 0 0.0 3.0 0.05 0.06 0.06 88 1009.4
20260508224536 52 84 0.0 4.0 0.04 0.05 0.05 87 1009.6
20260508223040 52 0 0.0 6.0 0.05 0.05 0.05 86 1009.9
20260508221534 53 163 2.0 7.0 0.03 0.03 0.03 85 1009.6
20260508220035 53 275 0.0 2.0 0.01 0.01 0.01 84 1009.5
20260508214535 53 184 1.0 4.0 0.01 0.01 0.01 83 1009.7
20260508213035 53 200 2.0 5.0 0.00 0.00 0.00 82 1009.8
20260508211532 54 165 1.0 4.0 0.00 0.00 0.00 82 1009.4
20260508210035 54 245 2.0 6.0 0.00 0.00 0.00 81 1009.7
20260508204535 55 196 2.0 5.0 0.00 0.00 0.00 80 1009.8
20260508203041 55 0 2.0 10.0 0.00 0.00 0.00 81 1010.2
20260508201535 55 262 4.0 10.0 0.00 0.00 0.00 79 1010.3
20260508200035 56 196 3.0 7.0 0.00 0.00 0.00 77 1010.6
20260508194537 58 180 4.0 12.0 0.00 0.00 0.00 73 1010.9
20260508193032 59 173 2.0 11.0 0.00 0.00 0.00 72 1010.6